Погода в Прохоровке

Россия / Ростовская область     47°53′11″N   40°15′51″E
темп.,
°C
ветер,
м/с
пор.,
м/с
влажн.,
%
обл.,
%
осадки,
мм/ч
давл.,
гПа
погр.,
м
21 апреля, ср
ср2100:00+9ююз81491100 0.1 1008880
03:00+8ююз71491100 0.1 1009911
06:00+9юз7139277 0.1 1011695
09:00+10зюз7107898 0.1 1015826
12:00+15зюз7105079 0.1 10152059
15:00+14юз7857100 0.1 10161408
18:00+13юз68655 0.3 1017842
21:00+8юз39831 0.3 1020197
22 апреля, чт
чт2200:00+7юз37845 0.0 1021132
03:00+6юз35864 0.0 102183
06:00+6юз35885 0.0 102290
09:00+13зюз34635 0.0 1022549
12:00+16ююз334845 0.1 10221610
15:00+17ююз3343100 0.2 10211940
18:00+16ю2352100 0.0 102193
21:00+11юз2274100 0.2 102220
23 апреля, пт
пт2300:00+11ю5884100 0.9 1022277
03:00+9юв3591100 2.1 1022192
06:00+9з00864 0.3 102216
09:00+13сз126515 0.3 1022753
12:00+16з345138 0.1 10211770
15:00+15юз3556100 0.2 1020368
18:00+15юз365514 0.0 1019275
21:00+11зюз3878100 0.0 1020169
24 апреля, сб
сб2400:00+9зюз377887 0.0 1019118
03:00+9юз3780100 0.0 1018167
06:00+8ююз498898 0.0 1017264
09:00+12юз81168100 0.0 1017773
12:00+14юз8116094 0.1 10161430
15:00+10зюз597998 1.8 1018878
18:00+12зсз37607 0.4 10181292
21:00+8ююз34745 0.4 101958
25 апреля, вс
вс2500:00+6зюз338711 0.0 101946
03:00+6з2269100 0.0 101911
06:00+6сз2271100 0.0 102025
09:00+11юз1253100 0.0 1019597
12:00+13зюз4543100 0.0 10181925
15:00+13зюз3343100 0.0 10181757
18:00+13ю1152100 0.0 101750
21:00+10св1260100 0.0 101745